Change the Weather History Date:

Friday, April 4, 2014

  Actual Average Record
Temperature  
Mean Temperature 54 °F 50 °F  
Max Temperature 61 °F 60 °F 83 °F (2000)
Min Temperature 47 °F 41 °F 28 °F (1970)
Degree Days  
Heating Degree Days 11 15  
Month to date heating degree days 56 60  
Since 1 July heating degree days 3380 3439  
Cooling Degree Days 0 0  
Month to date cooling degree days 0 0  
Year to date cooling degree days 0 0  
Growing Degree Days 3 (Base 50)    
Moisture  
Dew Point 42 °F    
Average Humidity 68    
Maximum Humidity 93    
Minimum Humidity 42    
Precipitation  
Precipitation 0.06 in 0.10 in 0.72 in (1941)
Month to date precipitation 0.07 0.41  
Year to date precipitation 12.48 12.95  
Sea Level Pressure  
Sea Level Pressure 30.01 in    
Wind  
Wind Speed 3 mph (NW)    
Max Wind Speed 15 mph    
Max Gust Speed 19 mph    
Visibility 10 miles    
Events Rain    
T = Trace of Precipitation, MM = Missing Value Source: NWS Daily Summary

Daily Weather History Graph

Daily Weather History Graph

Search for Another Location

Airport or City:

Trip Planner

Search our weather history database for the weather conditions in past years. The results will help you decide how hot, cold, wet, or windy it might be!

Date:

Astronomy

Apr. 04, 2014 Rise Set
Actual Time 6:49 AM PDT 7:43 PM PDT
Civil Twilight 6:20 AM PDT 8:12 PM PDT
Nautical Twilight 5:46 AM PDT 8:47 PM PDT
Astronomical Twilight 5:10 AM PDT 9:23 PM PDT
Moon 10:05 AM PDT (4/4) 12:12 AM PDT (4/4)
Length of Visible Light 13h 51m
Length of Day
12h 53m
Waxing Crescent, 26% of the Moon is Illuminated
Apr 4
Waxing Crescent
Apr 7
First Quarter
Apr 15
Full
Apr 22
Last Quarter
Apr 28
New

Hourly Weather History & Observations

Time (PDT) Temp. Dew Point Humidity Pressure Visibility Wind Dir Wind Speed Gust Speed Precip Events Conditions
12:53 AM 50.0 °F 43.0 °F 77% 30.03 in 10.0 mi North 3.5 mph - 0.01 in Rain Light Rain
1:53 AM 48.9 °F 44.1 °F 83% 30.02 in 10.0 mi NNW 5.8 mph - 0.01 in Rain Light Rain
2:32 AM 48.0 °F 44.1 °F 86% 30.01 in 10.0 mi Calm Calm - 0.01 in Rain Light Rain
2:53 AM 48.0 °F 43.0 °F 83% 30.01 in 10.0 mi Calm Calm - 0.01 in   Overcast
3:53 AM 48.0 °F 44.1 °F 86% 30.01 in 10.0 mi NE 3.5 mph - 0.00 in   Overcast
4:53 AM 46.9 °F 43.0 °F 86% 30.00 in 10.0 mi NNW 3.5 mph - 0.01 in Rain Light Rain
5:53 AM 46.9 °F 44.1 °F 90% 30.00 in 10.0 mi North 3.5 mph - 0.01 in   Overcast
6:53 AM 46.9 °F 44.1 °F 90% 30.01 in 10.0 mi Calm Calm - N/A   Overcast
7:21 AM 46.9 °F 44.1 °F 90% 30.01 in 9.0 mi Calm Calm - 0.00 in Rain Light Rain
7:29 AM 48.0 °F 44.1 °F 86% 30.01 in 10.0 mi Calm Calm - 0.00 in Rain Light Rain
7:53 AM 48.0 °F 44.1 °F 86% 30.02 in 10.0 mi North 3.5 mph - 0.00 in   Overcast
8:42 AM 48.0 °F 44.1 °F 86% 30.02 in 10.0 mi Calm Calm - 0.00 in Rain Light Rain
8:53 AM 48.9 °F 44.1 °F 83% 30.03 in 10.0 mi Calm Calm - 0.00 in   Overcast
9:53 AM 50.0 °F 43.0 °F 77% 30.02 in 10.0 mi Calm Calm - N/A   Overcast
10:53 AM 52.0 °F 43.0 °F 71% 30.03 in 10.0 mi South 3.5 mph - N/A   Overcast
11:45 AM 53.1 °F 39.9 °F 61% 30.02 in 10.0 mi Variable 3.5 mph - N/A   Mostly Cloudy
11:53 AM 54.0 °F 41.0 °F 62% 30.03 in 10.0 mi SSE 6.9 mph - N/A   Mostly Cloudy
12:53 PM 55.0 °F 39.9 °F 57% 30.01 in 10.0 mi WNW 4.6 mph - 0.00 in   Mostly Cloudy
1:53 PM 57.0 °F 39.0 °F 51% 29.99 in 10.0 mi Calm Calm - 0.00 in   Overcast
2:53 PM 59.0 °F 39.0 °F 48% 29.97 in 10.0 mi SE 4.6 mph - 0.00 in   Overcast
3:53 PM 60.1 °F 37.9 °F 44% 29.96 in 10.0 mi WSW 3.5 mph - N/A   Overcast
4:53 PM 60.1 °F 37.0 °F 42% 29.96 in 10.0 mi West 3.5 mph - N/A   Mostly Cloudy
5:53 PM 59.0 °F 37.9 °F 46% 29.97 in 10.0 mi Variable 6.9 mph - N/A   Mostly Cloudy
6:53 PM 55.9 °F 39.0 °F 53% 29.99 in 10.0 mi NW 8.1 mph - N/A   Overcast
7:53 PM 55.0 °F 36.0 °F 49% 30.01 in 10.0 mi North 4.6 mph - N/A   Overcast
8:53 PM 53.1 °F 37.9 °F 57% 30.02 in 10.0 mi WSW 3.5 mph - N/A   Mostly Cloudy
9:53 PM 52.0 °F 39.9 °F 63% 30.04 in 10.0 mi West 3.5 mph - 0.01 in Rain Light Rain
10:53 PM 50.0 °F 44.1 °F 80% 30.05 in 10.0 mi North 4.6 mph - 0.01 in   Overcast
11:53 PM 50.0 °F 44.1 °F 80% 30.06 in 10.0 mi Calm Calm - 0.00 in Rain Light Rain